Location: Nickerson Gardens
(33.9320°N, 118.2484°W)
Time: 23:04:48
(UTC+00:00)

X-37B - Visible Passes

Search period start: 22 January 2021 00:00
Search period end: 01 February 2021 00:00
Orbit: 385 x 390 km, 45.0° (Epoch: 20 January)

Date Brightness Start Highest point End Pass type
(mag) Time Alt. Az. Time Alt. Az. Time Alt. Az.
22 Jan 2.3 01:47:39 10° W 01:50:21 25° NNW 01:53:03 10° NE visible
23 Jan 3.0 02:27:24 10° NW 02:29:04 13° N 02:30:00 12° N visible
25 Jan 3.1 02:08:06 10° NNW 02:09:17 11° N 02:10:27 10° NNE visible
26 Jan 3.2 02:46:49 10° NNW 02:47:31 12° N 02:47:31 12° N visible
27 Jan 3.1 01:48:29 10° NNW 01:49:31 11° N 01:50:32 10° NNE visible
28 Jan 2.7 02:26:27 10° NNW 02:28:24 15° NNE 02:28:36 15° NNE visible
29 Jan 2.8 03:04:09 10° NW 03:05:25 19° NNW 03:05:25 19° NNW visible
30 Jan 2.2 02:06:02 10° NNW 02:08:31 20° NNE 02:10:02 15° ENE visible
30 Jan 4.0 03:42:14 10° WNW 03:42:20 11° WNW 03:42:20 11° WNW visible
31 Jan 0.5 02:43:53 10° NW 02:47:01 60° NNE 02:47:07 59° NE visible
